Quillayute, WA
on Sunday, February 10, 2013

Sunday
Previous Day Next Day
Daily Summary
 ActualAverageRecord
Temperature
Mean Temperature °F / °C 42°F / 6°C  
Max Temperature 48°F / 9°C 49°F / 9°C 65°F / 18°C (1970)
Min Temperature 32°F / 0°C 35°F / 2°C 19°F / -7°C (1989)
Degree Days
Heating Degree Days 25 23  
Month to date heating degree days 217 230  
Since 1 July heating degree days 3325 3435  
Cooling Degree Days 0 0  
Month to date cooling degree days 0 0  
Year to date cooling degree days 0 0  
Moisture
Dew Point 36°F / 2°C   
Average Humidity 84    
Maximum Humidity 92    
Minimum Humidity 76    
Precipitation
Precipitation 0.01 in / 0.25 cm 0.39 in / 9.91 cm 2.22 in / 5.64 cm (1990)
Month to date precipitation 2.02 3.88  
Year to date precipitation 12.36 18.49  
Wind
Wind Speed 1 mph / 2 km/h   
Max Wind Speed 6 mph / 10 km/h   
Max Gust Speed 8 mph / 13 km/h   
Visibility 3 miles / 4 kilometers   
Events Fog , Rain   

Key: T is trace of precipitation, MM is missing value
Source: NWS Daily Summary
Time(PST)TemperatureDew PointHumidity Pressure Visibility Wind DirectionWind SpeedGust SpeedPrecipitationEvents Conditions
12:03 AM 41.0°F / 5.0°C 37.4°F / 3.0°C 87% 30.33 in / 1027.0 hPa 0.5 miles / 0.8 kilometers Calm Calm - N/A Fog Fog
12:12 AM 39.2°F / 4.0°C 37.4°F / 3.0°C 93% 30.33 in / 1027.0 hPa 0.2 miles / 0.4 kilometers Calm Calm - N/A Fog Fog
12:27 AM 39.2°F / 4.0°C 35.6°F / 2.0°C 87% 30.33 in / 1027.0 hPa 0.2 miles / 0.4 kilometers Calm Calm - N/A Fog Fog
12:49 AM 39.2°F / 4.0°C 35.6°F / 2.0°C 87% 30.34 in / 1027.3 hPa 0.2 miles / 0.4 kilometers East 4.6 mph / 7.4 km/h - N/A Fog Fog
12:53 AM 39.0°F / 3.9°C 35.1°F / 1.7°C 86% 30.34 in / 1027.4 hPa 0.2 miles / 0.4 kilometers East 4.6 mph / 7.4 km/h - N/A Fog Fog
1:53 AM 37.9°F / 3.3°C 36.0°F / 2.2°C 93% 30.35 in / 1027.7 hPa 0.2 miles / 0.4 kilometers Calm Calm - N/A Fog Fog
2:53 AM 37.9°F / 3.3°C 34.0°F / 1.1°C 86% 30.35 in / 1027.8 hPa 0.2 miles / 0.4 kilometers Calm Calm - N/A Fog Fog
3:35 AM 35.6°F / 2.0°C 33.8°F / 1.0°C 93% 30.35 in / 1027.7 hPa 0.5 miles / 0.8 kilometers Calm Calm - N/A Fog Fog
3:43 AM 35.6°F / 2.0°C 33.8°F / 1.0°C 93% 30.35 in / 1027.7 hPa 0.2 miles / 0.4 kilometers Calm Calm - N/A Fog Fog
3:53 AM 36.0°F / 2.2°C 33.1°F / 0.6°C 89% 30.35 in / 1027.8 hPa 0.2 miles / 0.4 kilometers Calm Calm - N/A Fog Fog
4:00 AM 35.6°F / 2.0°C 33.8°F / 1.0°C 93% 30.35 in / 1027.7 hPa 1.0 miles / 1.6 kilometers East 4.6 mph / 7.4 km/h - N/A   Overcast
4:03 AM 35.6°F / 2.0°C 33.8°F / 1.0°C 93% 30.35 in / 1027.7 hPa 1.5 miles / 2.4 kilometers East 4.6 mph / 7.4 km/h - N/A   Overcast
4:06 AM 35.6°F / 2.0°C 33.8°F / 1.0°C 93% 30.35 in / 1027.7 hPa 4.0 miles / 6.4 kilometers East 4.6 mph / 7.4 km/h - N/A   Overcast
4:16 AM 35.6°F / 2.0°C 32.0°F / 0.0°C 87% 30.35 in / 1027.7 hPa 1.5 miles / 2.4 kilometers Calm Calm - N/A   Overcast
4:19 AM 35.6°F / 2.0°C 32.0°F / 0.0°C 87% 30.35 in / 1027.7 hPa 0.8 miles / 1.2 kilometers Calm Calm - N/A   Overcast
4:26 AM 33.8°F / 1.0°C 30.2°F / -1.0°C 87% 30.35 in / 1027.7 hPa 0.5 miles / 0.8 kilometers Calm Calm - N/A Fog Fog
4:50 AM 35.6°F / 2.0°C 30.2°F / -1.0°C 81% 30.35 in / 1027.7 hPa 1.2 miles / 2.0 kilometers Calm Calm - N/A   Scattered Clouds
4:53 AM 35.1°F / 1.7°C 30.9°F / -0.6°C 85% 30.36 in / 1027.9 hPa 2.0 miles / 3.2 kilometers Calm Calm - N/A   Scattered Clouds
5:02 AM 33.8°F / 1.0°C 30.2°F / -1.0°C 87% 30.35 in / 1027.7 hPa 4.0 miles / 6.4 kilometers Calm Calm - N/A   Partly Cloudy
5:53 AM 33.1°F / 0.6°C 30.0°F / -1.1°C 89% 30.36 in / 1028.1 hPa 4.0 miles / 6.4 kilometers Calm Calm - N/A   Mostly Cloudy
6:19 AM 33.8°F / 1.0°C 28.4°F / -2.0°C 81% 30.36 in / 1028.0 hPa 5.0 miles / 8.0 kilometers Calm Calm - N/A   Scattered Clouds
6:53 AM 32.0°F / 0.0°C 28.9°F / -1.7°C 88% 30.36 in / 1027.9 hPa 6.0 miles / 9.7 kilometers Calm Calm - N/A   Clear
7:24 AM 32.0°F / 0.0°C 28.4°F / -2.0°C 87% 30.36 in / 1028.0 hPa 1.8 miles / 2.8 kilometers Calm Calm - N/A   Clear
7:32 AM 32.0°F / 0.0°C 28.4°F / -2.0°C 87% 30.36 in / 1028.0 hPa 1.2 miles / 2.0 kilometers Calm Calm - N/A   Clear
7:36 AM 32.0°F / 0.0°C 28.4°F / -2.0°C 87% 30.35 in / 1027.7 hPa 2.5 miles / 4.0 kilometers Calm Calm - N/A   Clear
7:43 AM 32.0°F / 0.0°C 28.4°F / -2.0°C 87% 30.35 in / 1027.7 hPa 5.0 miles / 8.0 kilometers Calm Calm - N/A   Clear
7:53 AM 33.1°F / 0.6°C 28.9°F / -1.7°C 85% 30.36 in / 1028.0 hPa 5.0 miles / 8.0 kilometers Calm Calm - N/A   Clear
8:28 AM 33.8°F / 1.0°C 30.2°F / -1.0°C 87% 30.36 in / 1028.0 hPa 5.0 miles / 8.0 kilometers Calm Calm - N/A   Scattered Clouds
8:37 AM 33.8°F / 1.0°C 30.2°F / -1.0°C 87% 30.36 in / 1028.0 hPa 5.0 miles / 8.0 kilometers Calm Calm - N/A   Mostly Cloudy
8:53 AM 35.1°F / 1.7°C 30.9°F / -0.6°C 85% 30.37 in / 1028.3 hPa 5.0 miles / 8.0 kilometers Calm Calm - N/A   Overcast
9:31 AM 37.4°F / 3.0°C 33.8°F / 1.0°C 87% 30.37 in / 1028.3 hPa 2.5 miles / 4.0 kilometers Calm Calm - N/A   Overcast
9:34 AM 37.4°F / 3.0°C 33.8°F / 1.0°C 87% 30.37 in / 1028.3 hPa 1.2 miles / 2.0 kilometers Calm Calm - N/A   Overcast
9:40 AM 39.2°F / 4.0°C 35.6°F / 2.0°C 87% 30.37 in / 1028.3 hPa 0.2 miles / 0.4 kilometers Calm Calm - N/A Fog Fog
9:53 AM 39.9°F / 4.4°C 37.0°F / 2.8°C 89% 30.38 in / 1028.8 hPa 0.2 miles / 0.4 kilometers East 3.5 mph / 5.6 km/h - N/A Fog Fog
10:04 AM 41.0°F / 5.0°C 37.4°F / 3.0°C 87% 30.38 in / 1028.7 hPa 0.8 miles / 1.2 kilometers Calm Calm - N/A   Overcast
10:12 AM 41.0°F / 5.0°C 37.4°F / 3.0°C 87% 30.38 in / 1028.7 hPa 1.8 miles / 2.8 kilometers East 3.5 mph / 5.6 km/h - N/A   Mostly Cloudy
10:19 AM 41.0°F / 5.0°C 37.4°F / 3.0°C 87% 30.38 in / 1028.7 hPa 5.0 miles / 8.0 kilometers Calm Calm - N/A   Mostly Cloudy
10:37 AM 42.8°F / 6.0°C 37.4°F / 3.0°C 81% 30.37 in / 1028.3 hPa 6.0 miles / 9.7 kilometers Calm Calm - N/A   Haze
10:53 AM 45.0°F / 7.2°C 39.0°F / 3.9°C 80% 30.38 in / 1028.5 hPa 6.0 miles / 9.7 kilometers SE 3.5 mph / 5.6 km/h - N/A   Haze
11:51 AM 46.4°F / 8.0°C 39.2°F / 4.0°C 76% 30.36 in / 1028.0 hPa 6.0 miles / 9.7 kilometers Calm Calm - N/A   Haze
11:53 AM 46.9°F / 8.3°C 39.0°F / 3.9°C 74% 30.37 in / 1028.2 hPa 6.0 miles / 9.7 kilometers Calm Calm - N/A   Haze
12:53 PM 46.9°F / 8.3°C 39.9°F / 4.4°C 77% 30.36 in / 1028.0 hPa 5.0 miles / 8.0 kilometers SSW 3.5 mph / 5.6 km/h - N/A   Haze
1:23 PM 46.4°F / 8.0°C 39.2°F / 4.0°C 76% 30.35 in / 1027.7 hPa 5.0 miles / 8.0 kilometers West 3.5 mph / 5.6 km/h - N/A   Haze
1:31 PM 46.4°F / 8.0°C 39.2°F / 4.0°C 76% 30.35 in / 1027.7 hPa 5.0 miles / 8.0 kilometers West 3.5 mph / 5.6 km/h - N/A   Haze
1:53 PM 46.0°F / 7.8°C 39.9°F / 4.4°C 79% 30.35 in / 1027.8 hPa 4.0 miles / 6.4 kilometers WSW 5.8 mph / 9.3 km/h - N/A   Haze
2:53 PM 46.0°F / 7.8°C 39.0°F / 3.9°C 76% 30.36 in / 1027.9 hPa 4.0 miles / 6.4 kilometers Calm Calm - N/A   Haze
3:53 PM 46.9°F / 8.3°C 39.9°F / 4.4°C 77% 30.35 in / 1027.5 hPa 4.0 miles / 6.4 kilometers Calm Calm - N/A   Haze
4:53 PM 46.9°F / 8.3°C 39.0°F / 3.9°C 74% 30.35 in / 1027.5 hPa 5.0 miles / 8.0 kilometers NNE 3.5 mph / 5.6 km/h - N/A   Haze
5:53 PM 45.0°F / 7.2°C 39.9°F / 4.4°C 82% 30.35 in / 1027.6 hPa 5.0 miles / 8.0 kilometers Calm Calm - N/A   Haze
6:53 PM 44.1°F / 6.7°C 39.9°F / 4.4°C 85% 30.35 in / 1027.7 hPa 5.0 miles / 8.0 kilometers Calm Calm - N/A   Overcast
7:53 PM 44.1°F / 6.7°C 39.9°F / 4.4°C 85% 30.35 in / 1027.7 hPa 4.0 miles / 6.4 kilometers Calm Calm - N/A   Overcast
8:53 PM 44.1°F / 6.7°C 39.9°F / 4.4°C 85% 30.36 in / 1027.9 hPa 4.0 miles / 6.4 kilometers NNW 3.5 mph / 5.6 km/h - N/A   Overcast
9:53 PM 44.1°F / 6.7°C 39.9°F / 4.4°C 85% 30.35 in / 1027.7 hPa 2.0 miles / 3.2 kilometers Calm Calm - 0.00 in / 0.0 cm Rain Light Rain
10:01 PM 42.8°F / 6.0°C 39.2°F / 4.0°C 87% 30.34 in / 1027.3 hPa 1.5 miles / 2.4 kilometers Calm Calm - 0.00 in / 0.0 cm Rain Light Rain
10:11 PM 42.8°F / 6.0°C 39.2°F / 4.0°C 87% 30.34 in / 1027.3 hPa 1.2 miles / 2.0 kilometers SSW 3.5 mph / 5.6 km/h - 0.00 in / 0.0 cm Rain Light Rain
10:22 PM 42.8°F / 6.0°C 39.2°F / 4.0°C 87% 30.34 in / 1027.3 hPa 1.0 miles / 1.6 kilometers Calm Calm - 0.01 in / 0.3 cm Rain Light Rain
10:33 PM 42.8°F / 6.0°C 39.2°F / 4.0°C 87% 30.34 in / 1027.3 hPa 2.0 miles / 3.2 kilometers Calm Calm - 0.01 in / 0.3 cm   Overcast
10:41 PM 42.8°F / 6.0°C 39.2°F / 4.0°C 87% 30.34 in / 1027.3 hPa 5.0 miles / 8.0 kilometers Calm Calm - 0.01 in / 0.3 cm   Mostly Cloudy
10:53 PM 43.0°F / 6.1°C 39.0°F / 3.9°C 86% 30.35 in / 1027.6 hPa 4.0 miles / 6.4 kilometers Calm Calm - 0.01 in / 0.3 cm   Mostly Cloudy
11:04 PM 44.6°F / 7.0°C 39.2°F / 4.0°C 81% 30.34 in / 1027.3 hPa 5.0 miles / 8.0 kilometers Calm Calm - N/A   Haze
11:15 PM 42.8°F / 6.0°C 39.2°F / 4.0°C 87% 30.34 in / 1027.3 hPa 1.2 miles / 2.0 kilometers Calm Calm - N/A   Overcast
11:22 PM 42.8°F / 6.0°C 37.4°F / 3.0°C 81% 30.34 in / 1027.3 hPa 0.8 miles / 1.2 kilometers Calm Calm - N/A   Overcast
11:26 PM 42.8°F / 6.0°C 37.4°F / 3.0°C 81% 30.34 in / 1027.3 hPa 1.8 miles / 2.8 kilometers Calm Calm - N/A   Overcast
11:28 PM 42.8°F / 6.0°C 37.4°F / 3.0°C 81% 30.34 in / 1027.3 hPa 3.0 miles / 4.8 kilometers Calm Calm - N/A   Overcast
11:38 PM 42.8°F / 6.0°C 37.4°F / 3.0°C 81% 30.34 in / 1027.3 hPa 2.0 miles / 3.2 kilometers Calm Calm - N/A   Overcast
11:46 PM 42.8°F / 6.0°C 39.2°F / 4.0°C 87% 30.34 in / 1027.3 hPa 1.8 miles / 2.8 kilometers Calm Calm - N/A   Overcast
11:53 PM 42.1°F / 5.6°C 37.9°F / 3.3°C 85% 30.35 in / 1027.5 hPa 1.5 miles / 2.4 kilometers East 3.5 mph / 5.6 km/h - N/A   Overcast
11:58 PM 42.8°F / 6.0°C 37.4°F / 3.0°C 81% 30.34 in / 1027.3 hPa 3.0 miles / 4.8 kilometers East 3.5 mph / 5.6 km/h - N/A   Overcast
Moon Phase
Feb. 10 Feb. 17 Feb. 25 Mar. 04 Mar. 11
Sunrise:07:32 AM (PST) Moon Rise:07:19 AM (PST)2/10
Sunset:05:33 PM (PST) Moon Set:06:39 PM (PST)2/10

Copyright © 2014 The Weather Underground, Inc.